Time,TemperatureF,DewpointF,PressureIn,WindDirection,WindDirectionDegrees,WindSpeedMPH,WindSpeedGustMPH,Humidity,HourlyPrecipIn,Conditions,Clouds,dailyrainin,SolarRadiationWatts/m^2,SoftwareType,DateUTC
2013-09-16 00:43:00,64.0,63.0,-100.00,North,9,1.0,3.0,96,0.00,,,0.00,0.000000,,2013-09-16 04:43:00,
2013-09-16 00:54:00,64.0,63.0,-100.00,North,9,1.0,3.0,96,0.00,,,0.00,0.000000,,2013-09-16 04:54:00,
2013-09-16 01:04:00,64.0,63.0,-100.00,North,9,1.0,3.0,96,0.00,,,0.00,0.000000,,2013-09-16 05:04:00,
2013-09-16 01:44:00,64.0,63.0,-100.00,NNE,20,2.0,3.0,97,0.00,,,0.00,0.000000,,2013-09-16 05:44:00,
2013-09-16 01:53:00,64.0,63.0,-100.00,NNE,20,2.0,3.0,97,0.00,,,0.00,0.000000,,2013-09-16 05:53:00,
2013-09-16 02:03:00,64.0,63.0,-100.00,NNE,20,2.0,3.0,97,0.00,,,0.00,0.000000,,2013-09-16 06:03:00,
2013-09-16 02:43:00,64.0,63.0,-100.00,North,0,1.0,3.0,97,0.00,,,0.00,0.000000,,2013-09-16 06:43:00,
2013-09-16 02:52:00,64.0,63.0,-100.00,North,0,1.0,3.0,97,0.00,,,0.00,0.000000,,2013-09-16 06:52:00,
2013-09-16 03:02:00,64.0,63.0,-100.00,North,0,1.0,3.0,97,0.00,,,0.00,0.000000,,2013-09-16 07:02:00,
2013-09-16 03:43:00,63.0,62.0,-100.00,SSE,154,0.0,3.0,97,0.00,,,0.00,0.000000,,2013-09-16 07:43:00,
2013-09-16 03:52:00,63.0,62.0,-100.00,SSE,154,0.0,3.0,97,0.00,,,0.00,0.000000,,2013-09-16 07:52:00,
2013-09-16 04:02:00,63.0,62.0,-100.00,SSE,154,0.0,3.0,97,0.00,,,0.00,0.000000,,2013-09-16 08:02:00,
2013-09-16 04:42:00,64.0,63.0,-100.00,NE,48,0.0,3.0,97,0.00,,,0.00,0.000000,,2013-09-16 08:42:00,
2013-09-16 04:52:00,64.0,63.0,-100.00,NE,48,0.0,3.0,97,0.00,,,0.00,0.000000,,2013-09-16 08:52:00,
2013-09-16 05:02:00,64.0,63.0,-100.00,NE,48,0.0,3.0,97,0.00,,,0.00,0.000000,,2013-09-16 09:02:00,
2013-09-16 05:43:00,63.0,62.0,-100.00,East,82,0.0,0.0,98,0.00,,,0.00,0.000000,,2013-09-16 09:43:00,
2013-09-16 05:53:00,63.0,62.0,-100.00,East,82,0.0,0.0,98,0.00,,,0.00,0.000000,,2013-09-16 09:53:00,
2013-09-16 06:03:00,63.0,62.0,-100.00,East,82,0.0,0.0,98,0.00,,,0.00,0.000000,,2013-09-16 10:03:00,
2013-09-16 06:42:00,62.0,61.0,-100.00,NW,325,0.0,0.0,98,0.00,,,0.00,0.000000,,2013-09-16 10:42:00,
2013-09-16 06:53:00,62.0,61.0,-100.00,NW,325,0.0,0.0,98,0.00,,,0.00,0.000000,,2013-09-16 10:53:00,
2013-09-16 07:02:00,62.0,61.0,-100.00,NW,325,0.0,0.0,98,0.00,,,0.00,0.000000,,2013-09-16 11:02:00,
2013-09-16 07:42:00,62.0,61.0,-100.00,North,7,0.0,0.0,98,0.00,,,0.00,3.000000,,2013-09-16 11:42:00,
2013-09-16 07:52:00,62.0,61.0,-100.00,North,7,0.0,0.0,98,0.00,,,0.00,3.000000,,2013-09-16 11:52:00,
2013-09-16 08:01:00,62.0,61.0,-100.00,North,7,0.0,0.0,98,0.00,,,0.00,3.000000,,2013-09-16 12:01:00,
2013-09-16 08:42:00,69.0,68.0,-100.00,NNE,28,0.0,0.0,96,0.00,,,0.00,104.000000,,2013-09-16 12:42:00,
2013-09-16 08:52:00,69.0,68.0,-100.00,NNE,28,0.0,0.0,96,0.00,,,0.00,104.000000,,2013-09-16 12:52:00,
2013-09-16 09:02:00,69.0,68.0,-100.00,NNE,28,0.0,0.0,96,0.00,,,0.00,104.000000,,2013-09-16 13:02:00,
2013-09-16 09:42:00,79.0,73.0,-100.00,SW,215,0.0,0.0,81,0.00,,,0.00,326.000000,,2013-09-16 13:42:00,
2013-09-16 09:52:00,79.0,73.0,-100.00,SW,215,0.0,0.0,81,0.00,,,0.00,326.000000,,2013-09-16 13:52:00,
2013-09-16 10:02:00,79.0,73.0,-100.00,SW,215,0.0,0.0,81,0.00,,,0.00,326.000000,,2013-09-16 14:02:00,
2013-09-16 10:42:00,82.0,70.0,-100.00,WSW,238,5.0,10.0,67,0.00,,,0.00,476.000000,,2013-09-16 14:42:00,
2013-09-16 10:52:00,82.0,70.0,-100.00,WSW,238,5.0,10.0,67,0.00,,,0.00,476.000000,,2013-09-16 14:52:00,
2013-09-16 11:02:00,82.0,70.0,-100.00,WSW,238,5.0,10.0,67,0.00,,,0.00,476.000000,,2013-09-16 15:02:00,
2013-09-16 11:43:00,85.0,66.0,-100.00,SSW,207,6.0,10.0,54,0.00,,,0.00,690.000000,,2013-09-16 15:43:00,
2013-09-16 11:53:00,85.0,66.0,-100.00,SSW,207,6.0,10.0,54,0.00,,,0.00,690.000000,,2013-09-16 15:53:00,
2013-09-16 12:03:00,85.0,66.0,-100.00,SSW,207,6.0,10.0,54,0.00,,,0.00,690.000000,,2013-09-16 16:03:00,
2013-09-16 12:43:00,85.0,66.0,-100.00,SSW,205,8.0,13.0,53,0.00,,,0.00,803.000000,,2013-09-16 16:43:00,
2013-09-16 12:52:00,85.0,66.0,-100.00,SSW,205,8.0,13.0,53,0.00,,,0.00,803.000000,,2013-09-16 16:52:00,
2013-09-16 13:03:00,85.0,66.0,-100.00,SSW,205,8.0,13.0,53,0.00,,,0.00,803.000000,,2013-09-16 17:03:00,
2013-09-16 13:43:00,84.0,71.0,-100.00,South,186,9.0,15.0,65,0.00,,,0.00,939.000000,,2013-09-16 17:43:00,
2013-09-16 13:53:00,84.0,71.0,-100.00,South,186,9.0,15.0,65,0.00,,,0.00,939.000000,,2013-09-16 17:53:00,
2013-09-16 14:02:00,84.0,71.0,-100.00,South,186,9.0,15.0,65,0.00,,,0.00,939.000000,,2013-09-16 18:02:00,
2013-09-16 14:42:00,77.0,69.0,-100.00,NE,52,6.0,16.0,77,0.00,,,0.00,614.000000,,2013-09-16 18:42:00,
2013-09-16 14:52:00,77.0,69.0,-100.00,NE,52,6.0,16.0,77,0.00,,,0.00,614.000000,,2013-09-16 18:52:00,
2013-09-16 15:01:00,77.0,69.0,-100.00,NE,52,6.0,16.0,77,0.00,,,0.00,614.000000,,2013-09-16 19:01:00,
2013-09-16 15:42:00,73.0,71.0,-100.00,ENE,64,7.0,25.0,95,0.69,,,0.69,148.000000,,2013-09-16 19:42:00,
2013-09-16 15:53:00,73.0,71.0,-100.00,ENE,64,7.0,25.0,95,0.69,,,0.69,148.000000,,2013-09-16 19:53:00,
2013-09-16 16:03:00,73.0,71.0,-100.00,ENE,64,7.0,25.0,95,0.69,,,0.69,148.000000,,2013-09-16 20:03:00,
2013-09-16 16:43:00,78.0,73.0,-100.00,South,188,5.0,10.0,84,0.00,,,0.69,490.000000,,2013-09-16 20:43:00,
2013-09-16 16:52:00,78.0,73.0,-100.00,South,188,5.0,10.0,84,0.00,,,0.69,490.000000,,2013-09-16 20:52:00,
2013-09-16 17:03:00,78.0,73.0,-100.00,South,188,5.0,10.0,84,0.00,,,0.69,490.000000,,2013-09-16 21:03:00,
2013-09-16 17:44:00,78.0,71.0,-100.00,SW,217,5.0,9.0,80,0.00,,,0.69,443.000000,,2013-09-16 21:44:00,
2013-09-16 17:56:00,78.0,71.0,-100.00,SW,217,5.0,9.0,80,0.00,,,0.69,443.000000,,2013-09-16 21:56:00,
2013-09-16 18:04:00,78.0,71.0,-100.00,SW,217,5.0,9.0,80,0.00,,,0.69,443.000000,,2013-09-16 22:04:00,
2013-09-16 18:43:00,78.0,72.0,-100.00,South,181,2.0,6.0,82,0.00,,,0.69,257.000000,,2013-09-16 22:43:00,
2013-09-16 18:54:00,78.0,72.0,-100.00,South,181,2.0,6.0,82,0.00,,,0.69,257.000000,,2013-09-16 22:54:00,
2013-09-16 19:02:00,78.0,72.0,-100.00,South,181,2.0,6.0,82,0.00,,,0.69,257.000000,,2013-09-16 23:02:00,
2013-09-16 19:43:00,75.0,72.0,-100.00,SSW,197,1.0,4.0,89,0.00,,,0.69,65.000000,,2013-09-16 23:43:00,
2013-09-16 19:53:00,75.0,72.0,-100.00,SSW,197,1.0,4.0,89,0.00,,,0.69,65.000000,,2013-09-16 23:53:00,
2013-09-16 20:02:00,75.0,72.0,-100.00,SSW,197,1.0,4.0,89,0.00,,,0.69,65.000000,,2013-09-17 00:02:00,
2013-09-16 20:42:00,72.0,70.0,-100.00,SSE,152,0.0,4.0,95,0.00,,,0.69,2.000000,,2013-09-17 00:42:00,
2013-09-16 20:52:00,72.0,70.0,-100.00,SSE,152,0.0,4.0,95,0.00,,,0.69,2.000000,,2013-09-17 00:52:00,
2013-09-16 21:02:00,72.0,70.0,-100.00,SSE,152,0.0,4.0,95,0.00,,,0.69,2.000000,,2013-09-17 01:02:00,
2013-09-16 21:42:00,70.0,69.0,-100.00,WNW,287,2.0,2.0,97,0.00,,,0.69,0.000000,,2013-09-17 01:42:00,
2013-09-16 21:52:00,70.0,69.0,-100.00,WNW,287,2.0,2.0,97,0.00,,,0.69,0.000000,,2013-09-17 01:52:00,
2013-09-16 22:03:00,70.0,69.0,-100.00,WNW,287,2.0,2.0,97,0.00,,,0.69,0.000000,,2013-09-17 02:03:00,
2013-09-16 22:42:00,71.0,70.0,-100.00,North,5,14.0,23.0,97,0.00,,,0.69,0.000000,,2013-09-17 02:42:00,
2013-09-16 22:53:00,71.0,70.0,-100.00,North,5,14.0,23.0,97,0.00,,,0.69,0.000000,,2013-09-17 02:53:00,
2013-09-16 23:02:00,71.0,70.0,-100.00,North,5,14.0,23.0,97,0.00,,,0.69,0.000000,,2013-09-17 03:02:00,
2013-09-16 23:05:00,68.0,65.0,-100.00,North,8,8.0,24.0,90,0.01,,,0.70,0.000000,,2013-09-17 03:05:00,
2013-09-16 23:45:00,68.0,65.0,-100.00,North,8,8.0,24.0,90,0.01,,,0.70,0.000000,,2013-09-17 03:45:00,
2013-09-16 23:54:00,68.0,65.0,-100.00,North,8,8.0,24.0,90,0.01,,,0.70,0.000000,,2013-09-17 03:54:00,